Weather past 2 weeks in Jamestown, Saint Helena

Now
77 °F

Scattered clouds.


Feels Like: 79 °F
Forecast: N/A
Wind: 9 mph from Southeast

Location: Saint Helena Island

Current Time: Jan 27, 2015 at 2:43:47 PM

Latest Report: Jan 27, 2015 at 2:00 PM


Visibility: 41 mi

Pressure: 29.97 "Hg

Humidity: 59%

Dew point: 62 °F

Location of JamestownLocation

Historic Weather in Jamestown — Graph

°F

Jamestown temperature yesterday

Maximum temperature yesterday: 76 °F (at 2:00 PM)
Minimum temperature yesterday: 67 °F (at 1:00 AM)
Average temperature yesterday: 71 °F

Past Weeks' High & Low Weather Summary

 TemperatureHumidityPressure
High76 °F (Jan 26, 2:00 PM)99% (Jan 18, 10:00 AM)30.10 "Hg (Jan 18, 10:00 AM)
Low65 °F (Jan 27, 5:00 AM)52% (Jan 27, 12:00 PM)29.89 "Hg (Jan 25, 5:00 PM)
Average69 °F85%30.01 "Hg
* Reported Jan 12 1:00 PM — Jan 27 1:00 PM, Jamestown, Weather by CustomWeather, © 2014

Note: Actual official high and low records may vary slightly from our data, if they occured in-between our weather recording intervals... More about our weather records

Advertising

Jamestown weather history for previous 24 hours

 ConditionsComfort  
Time TempWeatherWind HumidityBarometerVisibility
1:00 PM
Jan 27
75 °FScattered clouds.10 mph67%30.00 "Hg40 mi
12:00 PM75 °FPassing clouds.12 mph52%30.01 "Hg40 mi
11:00 AM74 °FPassing clouds.12 mph58%30.03 "Hg40 mi
10:00 AM73 °FPassing clouds.13 mph65%30.04 "Hg37 mi
9:00 AM72 °FPassing clouds.10 mph71%30.05 "Hg34 mi
8:00 AM71 °FMild.8 mph76%30.04 "HgN/A
7:00 AM67 °FMild.9 mph92%30.03 "HgN/A
5:00 AM65 °FMild.8 mph95%30.00 "HgN/A
4:00 AM66 °FMild.8 mph86%30.00 "HgN/A
3:00 AM66 °FMild.8 mph94%30.00 "HgN/A
2:00 AM67 °FMild.9 mph89%30.01 "HgN/A
1:00 AM67 °FMild.9 mph91%30.02 "HgN/A
12:00 AM67 °FMild.8 mph90%30.03 "HgN/A
11:00 PM
Jan 26
68 °FMild.8 mph90%30.04 "HgN/A
10:00 PM68 °FMild.9 mph90%30.03 "HgN/A
8:00 PM68 °FMild.8 mph87%29.99 "HgN/A
7:00 PM69 °FMild.7 mph86%29.97 "HgN/A
6:00 PM72 °FMild.6 mph76%29.95 "HgN/A
5:00 PM74 °FMild.8 mph66%29.93 "HgN/A
4:00 PM74 °FMild.9 mph68%29.94 "HgN/A
3:00 PM74 °FPassing clouds.10 mph62%29.93 "Hg40 mi
2:00 PM76 °FPassing clouds.10 mph56%29.94 "Hg40 mi
Weather by CustomWeather, © 2014

See weather overviewHow to use our weather pages